Location: Alincthun
(50.7310°N, 1.8022°E)
Time: 19:33:44
(UTC+00:00)

SKYMED 2 - Pass Details

Date: 17 February 2020
Orbit: 621 x 623 km, 97.9° (Epoch: 30 March)

Event Time Altitude Azimuth Distance (km) Brightness Sun altitude
Rises 04:48:39 0° 162° (SSE) 2,894 7.1 -21.7°
Reaches altitude 10° 04:50:50 10° 161° (SSE) 1,992 6.3 -21.4°
Maximum altitude 04:55:10 82° 75° (ENE) 637 3.6 -20.7°
Drops below altitude 10° 04:59:32 10° 348° (NNW) 2,008 6.1 -20.0°
Sets 05:01:45 0° 347° (NNW) 2,919 6.9 -19.7°
